Location: Aufkirchen
(47.9603°N, 11.3653°E)
Time: 06:29:32
(UTC+01:00)

SR - Visible Passes

Search period start: 27 November 2020 00:00
Search period end: 07 December 2020 00:00
Orbit: 579 x 876 km, 66.7° (Epoch: 26 November)

Date Brightness Start Highest point End Pass type
(mag) Time Alt. Az. Time Alt. Az. Time Alt. Az.
27 Nov ? 04:27:18 12° S 04:27:18 12° S 04:27:46 10° S visible
27 Nov ? 18:51:03 10° SSW 18:53:53 38° S 18:53:53 38° S visible
28 Nov ? 18:02:09 10° S 18:05:47 27° ESE 18:06:09 26° ESE visible
28 Nov ? 19:43:23 10° WSW 19:45:36 27° W 19:45:36 27° W visible
29 Nov ? 17:14:24 10° SE 17:16:29 13° ESE 17:18:21 11° E visible
29 Nov ? 18:53:22 10° SW 18:57:43 81° WNW 18:57:47 80° NW visible
30 Nov ? 18:03:53 10° SSW 18:08:05 51° ESE 18:09:53 31° ENE visible
30 Nov ? 19:46:35 10° W 19:49:19 24° WNW 19:49:19 24° WNW visible
01 Dec ? 17:15:03 10° SSE 17:18:37 25° ESE 17:21:56 12° ENE visible
01 Dec ? 18:56:08 10° WSW 19:00:22 45° NW 19:01:21 39° NNW visible
02 Dec ? 18:06:09 10° SW 18:10:31 86° WNW 18:13:18 24° NNE visible
02 Dec ? 19:50:08 10° WNW 19:52:44 18° NW 19:52:44 18° NW visible
03 Dec ? 17:16:43 10° S 17:20:54 48° ESE 17:25:12 11° NE visible
03 Dec ? 18:59:16 10° W 19:03:10 28° NW 19:04:37 24° N visible
04 Dec ? 18:08:52 10° SW 18:13:09 48° NW 18:16:27 18° NNE visible
04 Dec ? 19:54:03 10° NW 19:55:52 14° NNW 19:55:52 14° NNW visible
05 Dec ? 17:18:56 10° SSW 17:23:20 89° ESE 17:28:06 10° NE visible
05 Dec ? 19:02:46 10° W 19:06:07 20° NNW 19:07:40 17° N visible
06 Dec ? 18:11:57 10° WSW 18:15:56 30° NW 18:19:24 14° NNE visible
06 Dec ? 19:58:27 10° NNW 19:58:49 10° NNW 19:58:49 10° NNW visible
